Time,TemperatureF,DewpointF,PressureIn,WindDirection,WindDirectionDegrees,WindSpeedMPH,WindSpeedGustMPH,Humidity,HourlyPrecipIn,Conditions,Clouds,dailyrainin,SoftwareType,DateUTC
2013-09-25 00:00:00,48.0,-99.9,-100.00,North,-999,-999.0,-999.0,-999,0.00,,,0.08,,2013-09-25 07:00:00,
2013-09-25 00:42:00,48.0,-99.9,-100.00,North,-999,-999.0,-999.0,-999,0.00,,,0.08,,2013-09-25 07:42:00,
2013-09-25 00:53:00,48.0,-99.9,-100.00,North,-999,-999.0,-999.0,-999,0.00,,,0.08,,2013-09-25 07:53:00,
2013-09-25 01:00:00,48.0,-99.9,-100.00,North,-999,-999.0,-999.0,-999,0.00,,,0.08,,2013-09-25 08:00:00,
2013-09-25 01:42:00,48.0,-99.9,-100.00,North,-999,-999.0,-999.0,-999,0.00,,,0.08,,2013-09-25 08:42:00,
2013-09-25 01:53:00,48.0,-99.9,-100.00,North,-999,-999.0,-999.0,-999,0.00,,,0.08,,2013-09-25 08:53:00,
2013-09-25 02:00:00,48.0,-99.9,-100.00,North,-999,-999.0,-999.0,-999,0.01,,,0.09,,2013-09-25 09:00:00,
2013-09-25 02:44:00,48.0,-99.9,-100.00,North,-999,-999.0,-999.0,-999,0.01,,,0.09,,2013-09-25 09:44:00,
2013-09-25 02:54:00,48.0,-99.9,-100.00,North,-999,-999.0,-999.0,-999,0.01,,,0.09,,2013-09-25 09:54:00,
2013-09-25 03:00:00,48.0,-99.9,-100.00,North,-999,-999.0,-999.0,-999,0.03,,,0.12,,2013-09-25 10:00:00,
2013-09-25 03:43:00,48.0,-99.9,-100.00,North,-999,-999.0,-999.0,-999,0.03,,,0.12,,2013-09-25 10:43:00,
2013-09-25 03:53:00,48.0,-99.9,-100.00,North,-999,-999.0,-999.0,-999,0.03,,,0.12,,2013-09-25 10:53:00,
2013-09-25 04:00:00,48.0,-99.9,-100.00,North,-999,-999.0,-999.0,-999,0.01,,,-99.99,,2013-09-25 11:00:00,
2013-09-25 04:43:00,48.0,-99.9,-100.00,North,-999,-999.0,-999.0,-999,0.01,,,-99.99,,2013-09-25 11:43:00,
2013-09-25 04:52:00,48.0,-99.9,-100.00,North,-999,-999.0,-999.0,-999,0.01,,,-99.99,,2013-09-25 11:52:00,
2013-09-25 05:00:00,48.0,-99.9,-100.00,North,-999,-999.0,-999.0,-999,0.01,,,0.14,,2013-09-25 12:00:00,
2013-09-25 05:42:00,48.0,-99.9,-100.00,North,-999,-999.0,-999.0,-999,0.01,,,0.14,,2013-09-25 12:42:00,
2013-09-25 05:52:00,48.0,-99.9,-100.00,North,-999,-999.0,-999.0,-999,0.01,,,0.14,,2013-09-25 12:52:00,
2013-09-25 06:00:00,48.0,-99.9,-100.00,North,-999,-999.0,-999.0,-999,0.03,,,0.17,,2013-09-25 13:00:00,
2013-09-25 06:42:00,48.0,-99.9,-100.00,North,-999,-999.0,-999.0,-999,0.03,,,0.17,,2013-09-25 13:42:00,
2013-09-25 06:52:00,48.0,-99.9,-100.00,North,-999,-999.0,-999.0,-999,0.03,,,0.17,,2013-09-25 13:52:00,
2013-09-25 07:00:00,48.0,-99.9,-100.00,North,-999,-999.0,-999.0,-999,0.03,,,0.20,,2013-09-25 14:00:00,
2013-09-25 07:43:00,48.0,-99.9,-100.00,North,-999,-999.0,-999.0,-999,0.03,,,0.20,,2013-09-25 14:43:00,
2013-09-25 07:53:00,48.0,-99.9,-100.00,North,-999,-999.0,-999.0,-999,0.03,,,0.20,,2013-09-25 14:53:00,
2013-09-25 08:00:00,48.0,-99.9,-100.00,North,-999,-999.0,-999.0,-999,0.02,,,0.22,,2013-09-25 15:00:00,
2013-09-25 08:44:00,48.0,-99.9,-100.00,North,-999,-999.0,-999.0,-999,0.02,,,0.22,,2013-09-25 15:44:00,
2013-09-25 08:54:00,48.0,-99.9,-100.00,North,-999,-999.0,-999.0,-999,0.02,,,0.22,,2013-09-25 15:54:00,
2013-09-25 09:00:00,48.0,-99.9,-100.00,North,-999,-999.0,-999.0,-999,0.05,,,0.27,,2013-09-25 16:00:00,
2013-09-25 09:43:00,48.0,-99.9,-100.00,North,-999,-999.0,-999.0,-999,0.05,,,0.27,,2013-09-25 16:43:00,
2013-09-25 09:53:00,48.0,-99.9,-100.00,North,-999,-999.0,-999.0,-999,0.05,,,0.27,,2013-09-25 16:53:00,
2013-09-25 10:00:00,50.0,-99.9,-100.00,North,-999,-999.0,-999.0,-999,0.05,,,0.32,,2013-09-25 17:00:00,
2013-09-25 10:43:00,50.0,-99.9,-100.00,North,-999,-999.0,-999.0,-999,0.05,,,0.32,,2013-09-25 17:43:00,
2013-09-25 10:52:00,50.0,-99.9,-100.00,North,-999,-999.0,-999.0,-999,0.05,,,0.32,,2013-09-25 17:52:00,
2013-09-25 11:00:00,53.0,-99.9,-100.00,North,-999,-999.0,-999.0,-999,0.00,,,0.32,,2013-09-25 18:00:00,
2013-09-25 11:42:00,53.0,-99.9,-100.00,North,-999,-999.0,-999.0,-999,0.00,,,0.32,,2013-09-25 18:42:00,
2013-09-25 11:52:00,53.0,-99.9,-100.00,North,-999,-999.0,-999.0,-999,0.00,,,0.32,,2013-09-25 18:52:00,
2013-09-25 13:00:00,62.0,-99.9,-100.00,North,-999,-999.0,-999.0,-999,0.00,,,0.32,,2013-09-25 20:00:00,
2013-09-25 13:43:00,62.0,-99.9,-100.00,North,-999,-999.0,-999.0,-999,0.00,,,0.32,,2013-09-25 20:43:00,
2013-09-25 13:53:00,62.0,-99.9,-100.00,North,-999,-999.0,-999.0,-999,0.00,,,0.32,,2013-09-25 20:53:00,
2013-09-25 14:00:00,61.0,-99.9,-100.00,North,-999,-999.0,-999.0,-999,0.00,,,0.32,,2013-09-25 21:00:00,
2013-09-25 14:45:00,61.0,-99.9,-100.00,North,-999,-999.0,-999.0,-999,0.00,,,0.32,,2013-09-25 21:45:00,
2013-09-25 14:55:00,61.0,-99.9,-100.00,North,-999,-999.0,-999.0,-999,0.00,,,0.32,,2013-09-25 21:55:00,
2013-09-25 15:00:00,59.0,-99.9,-100.00,North,-999,-999.0,-999.0,-999,0.00,,,0.32,,2013-09-25 22:00:00,
2013-09-25 15:43:00,59.0,-99.9,-100.00,North,-999,-999.0,-999.0,-999,0.00,,,0.32,,2013-09-25 22:43:00,
2013-09-25 15:53:00,59.0,-99.9,-100.00,North,-999,-999.0,-999.0,-999,0.00,,,0.32,,2013-09-25 22:53:00,
2013-09-25 16:00:00,61.0,-99.9,-100.00,North,-999,-999.0,-999.0,-999,0.00,,,0.32,,2013-09-25 23:00:00,
2013-09-25 16:42:00,61.0,-99.9,-100.00,North,-999,-999.0,-999.0,-999,0.00,,,0.32,,2013-09-25 23:42:00,
2013-09-25 16:53:00,61.0,-99.9,-100.00,North,-999,-999.0,-999.0,-999,0.00,,,0.32,,2013-09-25 23:53:00,
2013-09-25 17:00:00,59.0,-99.9,-100.00,North,-999,-999.0,-999.0,-999,0.00,,,0.32,,2013-09-26 00:00:00,
2013-09-25 17:42:00,59.0,-99.9,-100.00,North,-999,-999.0,-999.0,-999,0.00,,,0.32,,2013-09-26 00:42:00,
2013-09-25 17:52:00,59.0,-99.9,-100.00,North,-999,-999.0,-999.0,-999,0.00,,,0.32,,2013-09-26 00:52:00,
2013-09-25 18:00:00,58.0,-99.9,-100.00,North,-999,-999.0,-999.0,-999,0.00,,,0.32,,2013-09-26 01:00:00,
2013-09-25 18:42:00,58.0,-99.9,-100.00,North,-999,-999.0,-999.0,-999,0.00,,,0.32,,2013-09-26 01:42:00,
2013-09-25 18:52:00,58.0,-99.9,-100.00,North,-999,-999.0,-999.0,-999,0.00,,,0.32,,2013-09-26 01:52:00,
2013-09-25 19:00:00,55.0,-99.9,-100.00,North,-999,-999.0,-999.0,-999,0.00,,,0.28,,2013-09-26 02:00:00,
2013-09-25 19:52:00,55.0,-99.9,-100.00,North,-999,-999.0,-999.0,-999,0.00,,,0.28,,2013-09-26 02:52:00,
2013-09-25 20:00:00,54.0,-99.9,-100.00,North,-999,-999.0,-999.0,-999,0.00,,,0.26,,2013-09-26 03:00:00,
2013-09-25 20:45:00,54.0,-99.9,-100.00,North,-999,-999.0,-999.0,-999,0.00,,,0.26,,2013-09-26 03:45:00,
2013-09-25 20:55:00,54.0,-99.9,-100.00,North,-999,-999.0,-999.0,-999,0.00,,,0.26,,2013-09-26 03:55:00,
2013-09-25 21:00:00,53.0,-99.9,-100.00,North,-999,-999.0,-999.0,-999,0.00,,,0.24,,2013-09-26 04:00:00,
2013-09-25 21:45:00,53.0,-99.9,-100.00,North,-999,-999.0,-999.0,-999,0.00,,,0.24,,2013-09-26 04:45:00,
2013-09-25 21:55:00,53.0,-99.9,-100.00,North,-999,-999.0,-999.0,-999,0.00,,,0.24,,2013-09-26 04:55:00,
2013-09-25 22:00:00,51.0,-99.9,-100.00,North,-999,-999.0,-999.0,-999,0.00,,,0.24,,2013-09-26 05:00:00,
2013-09-25 22:43:00,51.0,-99.9,-100.00,North,-999,-999.0,-999.0,-999,0.00,,,0.24,,2013-09-26 05:43:00,
2013-09-25 22:52:00,51.0,-99.9,-100.00,North,-999,-999.0,-999.0,-999,0.00,,,0.24,,2013-09-26 05:52:00,
2013-09-25 23:00:00,47.0,-99.9,-100.00,North,-999,-999.0,-999.0,-999,0.00,,,0.24,,2013-09-26 06:00:00,
2013-09-25 23:42:00,47.0,-99.9,-100.00,North,-999,-999.0,-999.0,-999,0.00,,,0.24,,2013-09-26 06:42:00,
2013-09-25 23:54:00,47.0,-99.9,-100.00,North,-999,-999.0,-999.0,-999,0.00,,,0.24,,2013-09-26 06:54:00,